| time (UTC) | temp C | wind direction | speed KPH | gust KPH | rain 1hr cm | rain 24hr cm | rain mn cm | humidity % | barometer mb |
| 20260506202516 | 13 | 217 | 8.0 | 19.3 | 0.00 | 1.88 | 1.88 | 97 | 1006.8 |
| 20260506201516 | 13 | 197 | 6.4 | 12.9 | 0.00 | 1.88 | 1.88 | 97 | 1006.9 |
| 20260506200516 | 13 | 212 | 6.4 | 22.5 | 0.03 | 1.88 | 1.88 | 97 | 1007.0 |
| 20260506195516 | 13 | 215 | 6.4 | 17.7 | 0.03 | 1.88 | 1.88 | 97 | 1007.2 |
| 20260506194516 | 13 | 222 | 6.4 | 19.3 | 0.03 | 1.88 | 1.88 | 97 | 1007.1 |
| 20260506193516 | 13 | 201 | 6.4 | 12.9 | 0.05 | 1.88 | 1.88 | 97 | 1007.3 |
| 20260506192516 | 13 | 211 | 8.0 | 19.3 | 0.05 | 1.88 | 1.88 | 97 | 1007.4 |
| 20260506191536 | 13 | 196 | 8.0 | 22.5 | 0.08 | 1.88 | 1.88 | 97 | 1007.4 |
| 20260506190516 | 13 | 223 | 4.8 | 17.7 | 0.10 | 1.85 | 1.85 | 97 | 1007.5 |
| 20260506185516 | 13 | 219 | 8.0 | 20.9 | 0.15 | 1.85 | 1.85 | 97 | 1007.6 |
| 20260506184516 | 13 | 212 | 3.2 | 12.9 | 0.20 | 1.85 | 1.85 | 98 | 1007.6 |
| 20260506183536 | 13 | 175 | 4.8 | 17.7 | 0.25 | 1.83 | 1.83 | 98 | 1007.6 |
| 20260506182516 | 13 | 189 | 3.2 | 12.9 | 0.36 | 1.83 | 1.83 | 98 | 1007.6 |
| 20260506181516 | 13 | 171 | 3.2 | 9.7 | 0.36 | 1.80 | 1.80 | 98 | 1007.7 |
| 20260506180516 | 13 | 197 | 4.8 | 11.3 | 0.36 | 1.75 | 1.75 | 98 | 1007.8 |
| 20260506175556 | 13 | 176 | 4.8 | 8.0 | 0.36 | 1.70 | 1.70 | 98 | 1007.9 |
| 20260506174516 | 12 | 201 | 3.2 | 8.0 | 0.41 | 1.65 | 1.65 | 98 | 1007.9 |
| 20260506173516 | 12 | 198 | 4.8 | 14.5 | 0.41 | 1.57 | 1.57 | 97 | 1007.8 |
| 20260506172516 | 13 | 197 | 6.4 | 12.9 | 0.41 | 1.47 | 1.47 | 97 | 1007.9 |
| 20260506171516 | 13 | 203 | 6.4 | 17.7 | 0.46 | 1.45 | 1.45 | 97 | 1007.9 |
| 20260506170516 | 13 | 180 | 6.4 | 14.5 | 0.48 | 1.40 | 1.40 | 97 | 1007.9 |
| 20260506165516 | 13 | 192 | 4.8 | 11.3 | 0.46 | 1.35 | 1.35 | 97 | 1007.9 |
| 20260506164516 | 13 | 182 | 8.0 | 22.5 | 0.46 | 1.24 | 1.24 | 97 | 1007.9 |
| 20260506163516 | 12 | 159 | 8.0 | 22.5 | 0.43 | 1.17 | 1.17 | 97 | 1008.0 |
| 20260506162516 | 12 | 181 | 8.0 | 17.7 | 0.33 | 1.07 | 1.07 | 97 | 1008.1 |
| 20260506161516 | 12 | 182 | 6.4 | 22.5 | 0.30 | 0.99 | 0.99 | 97 | 1008.3 |
| 20260506160516 | 12 | 178 | 8.0 | 16.1 | 0.28 | 0.91 | 0.91 | 97 | 1008.5 |
| 20260506155516 | 12 | 188 | 6.4 | 16.1 | 0.30 | 0.89 | 0.89 | 97 | 1008.4 |
| 20260506154516 | 12 | 181 | 9.7 | 22.5 | 0.28 | 0.79 | 0.79 | 96 | 1008.5 |
| 20260506153516 | 12 | 179 | 6.4 | 17.7 | 0.28 | 0.74 | 0.74 | 97 | 1008.4 |
| 20260506152517 | 12 | 184 | 8.0 | 19.3 | 0.33 | 0.74 | 0.74 | 96 | 1008.4 |
| 20260506151516 | 12 | 180 | 4.8 | 14.5 | 0.33 | 0.69 | 0.69 | 96 | 1008.6 |
| 20260506150516 | 12 | 205 | 6.4 | 17.7 | 0.33 | 0.64 | 0.64 | 96 | 1008.7 |
| 20260506145516 | 12 | 177 | 8.0 | 19.3 | 0.33 | 0.58 | 0.58 | 96 | 1008.9 |
| 20260506144516 | 12 | 200 | 9.7 | 22.5 | 0.28 | 0.51 | 0.51 | 96 | 1009.1 |
| 20260506143516 | 12 | 188 | 4.8 | 16.1 | 0.30 | 0.46 | 0.46 | 96 | 1009.1 |
| 20260506142516 | 12 | 178 | 6.4 | 16.1 | 0.30 | 0.41 | 0.41 | 96 | 1009.3 |
| 20260506141516 | 12 | 188 | 8.0 | 22.5 | 0.28 | 0.36 | 0.36 | 96 | 1009.4 |
| 20260506140516 | 12 | 190 | 9.7 | 19.3 | 0.25 | 0.30 | 0.30 | 96 | 1009.6 |
| 20260506135516 | 13 | 178 | 8.0 | 17.7 | 0.23 | 0.25 | 0.25 | 96 | 1009.6 |
| 20260506134516 | 13 | 190 | 6.4 | 16.1 | 0.20 | 0.23 | 0.23 | 95 | 1009.6 |
| 20260506133516 | 13 | 195 | 6.4 | 16.1 | 0.13 | 0.15 | 0.15 | 95 | 1009.6 |
| 20260506132516 | 13 | 199 | 8.0 | 16.1 | 0.08 | 0.10 | 0.10 | 94 | 1009.5 |
| 20260506131516 | 13 | 185 | 8.0 | 20.9 | 0.05 | 0.08 | 0.08 | 93 | 1009.4 |
| 20260506130517 | 13 | 193 | 6.4 | 19.3 | 0.05 | 0.05 | 0.05 | 92 | 1009.3 |
| 20260506125536 | 13 | 190 | 6.4 | 22.5 | 0.03 | 0.03 | 0.03 | 92 | 1009.2 |
| 20260506124516 | 13 | 200 | 6.4 | 17.7 | 0.03 | 0.03 | 0.03 | 92 | 1009.2 |
| 20260506123516 | 13 | 192 | 4.8 | 14.5 | 0.03 | 0.03 | 0.03 | 92 | 1009.2 |
| 20260506122516 | 13 | 182 | 4.8 | 14.5 | 0.03 | 0.03 | 0.03 | 92 | 1009.3 |
| 20260506121516 | 13 | 191 | 3.2 | 11.3 | 0.03 | 0.03 | 0.03 | 90 | 1009.4 |
| 20260506120516 | 13 | 180 | 1.6 | 11.3 | 0.00 | 0.00 | 0.00 | 88 | 1009.6 |
| 20260506115557 | 13 | 203 | 4.8 | 14.5 | 0.00 | 0.00 | 0.00 | 85 | 1009.6 |
| 20260506114517 | 14 | 197 | 4.8 | 12.9 | 0.00 | 0.00 | 0.00 | 81 | 1009.8 |
| 20260506113516 | 14 | 184 | 8.0 | 16.1 | 0.00 | 0.00 | 0.00 | 79 | 1009.8 |
| 20260506112516 | 14 | 171 | 4.8 | 14.5 | 0.00 | 0.00 | 0.00 | 79 | 1009.7 |
| 20260506111516 | 14 | 213 | 8.0 | 19.3 | 0.00 | 0.00 | 0.00 | 77 | 1009.4 |
| 20260506110516 | 14 | 200 | 8.0 | 14.5 | 0.00 | 0.00 | 0.00 | 77 | 1009.4 |
| 20260506105516 | 14 | 219 | 3.2 | 9.7 | 0.00 | 0.00 | 0.00 | 77 | 1009.3 |
| 20260506104516 | 14 | 210 | 3.2 | 11.3 | 0.00 | 0.00 | 0.00 | 75 | 1009.2 |
| 20260506103536 | 15 | 186 | 4.8 | 9.7 | 0.00 | 0.00 | 0.00 | 74 | 1009.2 |
| 20260506102516 | 15 | 199 | 3.2 | 19.3 | 0.00 | 0.00 | 0.00 | 72 | 1009.3 |
| 20260506101516 | 15 | 205 | 6.4 | 17.7 | 0.00 | 0.00 | 0.00 | 71 | 1009.3 |
| 20260506100516 | 15 | 208 | 6.4 | 16.1 | 0.00 | 0.00 | 0.00 | 71 | 1009.1 |
| 20260506095516 | 15 | 206 | 3.2 | 14.5 | 0.00 | 0.00 | 0.00 | 70 | 1008.9 |
| 20260506094516 | 15 | 193 | 6.4 | 20.9 | 0.00 | 0.00 | 0.00 | 70 | 1009.0 |
| 20260506093557 | 15 | 191 | 6.4 | 19.3 | 0.00 | 0.00 | 0.00 | 69 | 1009.2 |
| 20260506092516 | 15 | 178 | 8.0 | 25.7 | 0.00 | 0.00 | 0.00 | 69 | 1009.2 |
| 20260506091516 | 15 | 236 | 8.0 | 24.1 | 0.00 | 0.00 | 0.00 | 68 | 1009.3 |
| 20260506090516 | 15 | 215 | 6.4 | 19.3 | 0.00 | 0.00 | 0.00 | 68 | 1009.3 |
| 20260506085516 | 15 | 191 | 3.2 | 12.9 | 0.00 | 0.00 | 0.00 | 67 | 1009.2 |
| 20260506084516 | 15 | 168 | 4.8 | 12.9 | 0.00 | 0.00 | 0.00 | 67 | 1009.2 |
| 20260506083536 | 15 | 213 | 6.4 | 16.1 | 0.00 | 0.00 | 0.00 | 67 | 1009.3 |
| 20260506082516 | 15 | 211 | 8.0 | 20.9 | 0.00 | 0.00 | 0.00 | 67 | 1009.4 |
| 20260506081516 | 15 | 222 | 6.4 | 22.5 | 0.00 | 0.00 | 0.00 | 68 | 1009.5 |
| 20260506080516 | 15 | 197 | 8.0 | 17.7 | 0.00 | 0.00 | 0.00 | 67 | 1009.5 |
| 20260506073516 | 15 | 186 | 4.8 | 11.3 | 0.00 | 0.00 | 0.00 | 68 | 1009.7 |
| 20260506072516 | 15 | 174 | 4.8 | 16.1 | 0.00 | 0.00 | 0.00 | 68 | 1009.8 |
| 20260506071516 | 15 | 177 | 4.8 | 17.7 | 0.00 | 0.00 | 0.00 | 68 | 1009.9 |
| 20260506070516 | 15 | 190 | 4.8 | 12.9 | 0.00 | 0.00 | 0.00 | 67 | 1009.7 |
| 20260506062516 | 15 | 165 | 3.2 | 11.3 | 0.00 | 0.00 | 0.00 | 65 | 1010.2 |
| 20260506061516 | 15 | 204 | 4.8 | 14.5 | 0.00 | 0.00 | 0.00 | 65 | 1010.4 |
| 20260506060516 | 16 | 193 | 4.8 | 11.3 | 0.00 | 0.00 | 0.00 | 64 | 1010.2 |
| 20260506050516 | 16 | 175 | 6.4 | 25.7 | 0.00 | 0.00 | 0.00 | 62 | 1010.5 |
| 20260506044516 | 16 | 197 | 6.4 | 22.5 | 0.00 | 0.00 | 0.00 | 62 | 1010.6 |
| 20260506043516 | 16 | 201 | 4.8 | 12.9 | 0.00 | 0.00 | 0.00 | 64 | 1010.6 |
| 20260506042536 | 16 | 199 | 4.8 | 16.1 | 0.00 | 0.00 | 0.00 | 63 | 1010.7 |
| 20260506041536 | 16 | 187 | 4.8 | 14.5 | 0.00 | 0.00 | 0.00 | 63 | 1010.7 |
| 20260506040516 | 16 | 185 | 6.4 | 16.1 | 0.00 | 0.00 | 0.00 | 63 | 1010.7 |
| 20260506035536 | 16 | 182 | 4.8 | 19.3 | 0.00 | 0.00 | 0.00 | 63 | 1010.8 |
| 20260506034536 | 16 | 177 | 4.8 | 14.5 | 0.00 | 0.00 | 0.00 | 63 | 1010.7 |
| 20260506033516 | 16 | 174 | 4.8 | 16.1 | 0.00 | 0.00 | 0.00 | 62 | 1010.6 |
| 20260506032516 | 17 | 171 | 4.8 | 20.9 | 0.00 | 0.00 | 0.00 | 62 | 1010.5 |
| 20260506031516 | 17 | 177 | 6.4 | 24.1 | 0.00 | 0.00 | 0.00 | 63 | 1010.5 |
| 20260506030516 | 17 | 177 | 6.4 | 16.1 | 0.00 | 0.00 | 0.00 | 63 | 1010.5 |
| 20260506025516 | 16 | 179 | 4.8 | 14.5 | 0.00 | 0.00 | 0.00 | 65 | 1010.5 |
| 20260506024516 | 17 | 217 | 4.8 | 9.7 | 0.00 | 0.00 | 0.00 | 65 | 1010.6 |
| 20260506023516 | 17 | 212 | 3.2 | 14.5 | 0.00 | 0.00 | 0.00 | 63 | 1010.6 |
| 20260506022516 | 17 | 191 | 3.2 | 8.0 | 0.00 | 0.00 | 0.00 | 64 | 1010.6 |
| 20260506021516 | 17 | 213 | 3.2 | 6.4 | 0.00 | 0.00 | 0.00 | 65 | 1010.6 |
| 20260506020536 | 17 | 227 | 1.6 | 4.8 | 0.00 | 0.00 | 0.00 | 63 | 1010.6 |
| 20260506015516 | 17 | 242 | 0.0 | 3.2 | 0.00 | 0.00 | 0.00 | 63 | 1010.6 |
| 20260506014516 | 17 | 242 | 3.2 | 4.8 | 0.00 | 0.00 | 0.00 | 63 | 1010.5 |
| 20260506013536 | 17 | 242 | 1.6 | 3.2 | 0.00 | 0.00 | 0.00 | 64 | 1010.5 |
| 20260506012516 | 17 | 242 | 1.6 | 4.8 | 0.00 | 0.00 | 0.00 | 65 | 1010.4 |
| 20260506011516 | 17 | 0.0 | 0.0 | 0.00 | 0.00 | 0.00 | 65 | 1010.4 | |
| 20260506010516 | 17 | 242 | 0.0 | 3.2 | 0.00 | 0.00 | 0.00 | 66 | 1010.2 |
| 20260506005516 | 17 | 0.0 | 0.0 | 0.00 | 0.00 | 0.00 | 65 | 1010.3 | |
| 20260506004517 | 17 | 165 | 0.0 | 3.2 | 0.00 | 0.00 | 0.00 | 66 | 1010.1 |
| 20260506003517 | 17 | 167 | 1.6 | 9.7 | 0.00 | 0.00 | 0.00 | 63 | 1010.1 |
| 20260506002517 | 17 | 290 | 0.0 | 3.2 | 0.00 | 0.00 | 0.00 | 65 | 1009.9 |
| 20260506001517 | 17 | 187 | 1.6 | 8.0 | 0.00 | 0.00 | 0.00 | 66 | 1009.8 |
| 20260506000517 | 17 | 0.0 | 1.6 | 0.00 | 0.00 | 0.00 | 65 | 1009.7 | |
| 20260505235517 | 18 | 174 | 1.6 | 9.7 | 0.00 | 0.00 | 0.00 | 60 | 1009.8 |
| 20260505234517 | 18 | 233 | 1.6 | 11.3 | 0.00 | 0.00 | 0.00 | 59 | 1009.6 |
| 20260505233517 | 17 | 198 | 1.6 | 8.0 | 0.00 | 0.00 | 0.00 | 62 | 1009.6 |
| 20260505232517 | 17 | 336 | 0.0 | 3.2 | 0.00 | 0.00 | 0.00 | 64 | 1009.6 |
| 20260505231517 | 17 | 336 | 0.0 | 3.2 | 0.00 | 0.00 | 0.00 | 64 | 1009.5 |
| 20260505230517 | 18 | 0.0 | 1.6 | 0.00 | 0.00 | 0.00 | 64 | 1009.5 | |
| 20260505225537 | 18 | 336 | 0.0 | 3.2 | 0.00 | 0.00 | 0.00 | 62 | 1009.4 |
| 20260505224517 | 18 | 336 | 0.0 | 3.2 | 0.00 | 0.00 | 0.00 | 63 | 1009.4 |
| 20260505223517 | 18 | 331 | 1.6 | 6.4 | 0.00 | 0.00 | 0.00 | 63 | 1009.4 |
| 20260505222517 | 18 | 56 | 0.0 | 4.8 | 0.00 | 0.00 | 0.00 | 62 | 1009.3 |
| 20260505221517 | 19 | 15 | 6.4 | 14.5 | 0.00 | 0.00 | 0.00 | 59 | 1009.1 |
| 20260505220517 | 20 | 286 | 1.6 | 9.7 | 0.00 | 0.00 | 0.00 | 50 | 1008.9 |
| 20260505215517 | 20 | 257 | 4.8 | 12.9 | 0.00 | 0.00 | 0.00 | 48 | 1008.9 |
| 20260505214516 | 20 | 244 | 4.8 | 20.9 | 0.00 | 0.00 | 0.00 | 47 | 1008.9 |
| 20260505213516 | 21 | 243 | 14.5 | 29.0 | 0.00 | 0.00 | 0.00 | 43 | 1009.2 |
| 20260505212516 | 21 | 204 | 9.7 | 30.6 | 0.00 | 0.00 | 0.00 | 41 | 1008.8 |
| 20260505211516 | 21 | 209 | 6.4 | 19.3 | 0.00 | 0.00 | 0.00 | 41 | 1008.4 |
| 20260505210556 | 22 | 203 | 8.0 | 19.3 | 0.00 | 0.00 | 0.00 | 41 | 1008.0 |
| 20260505205516 | 22 | 216 | 9.7 | 40.2 | 0.00 | 0.00 | 0.00 | 41 | 1007.9 |
| 20260505204536 | 22 | 195 | 16.1 | 38.6 | 0.00 | 0.00 | 0.00 | 40 | 1007.9 |
| 20260505203516 | 23 | 219 | 14.5 | 32.2 | 0.00 | 0.00 | 0.00 | 38 | 1007.8 |